Phoenix, AZ

9:00 PM MST on November 21, 2017 (GMT -0700)
Phoenix Sky Harbor International

Weather History for KPHX - August, 2014

Change the Weather History Date:

Saturday, August 16, 2014

  Actual Average Record
Temperature  
Mean Temperature 97 °F 94 °F  
Max Temperature 106 °F 105 °F 113 °F (1992)
Min Temperature 87 °F 83 °F 64 °F (1918)
Degree Days  
Heating Degree Days 0 0  
Month to date heating degree days 0 0  
Since 1 June heating degree days 0 0  
Since 1 July heating degree days 0 0  
Cooling Degree Days 32 29  
Month to date cooling degree days 445 464  
Year to date cooling degree days 3359 3048  
Since 1 June cooling degree days 2284 2162  
Growing Degree Days 46 (Base 50)    
Moisture  
Dew Point 63 °F    
Average Humidity 38    
Maximum Humidity 53    
Minimum Humidity 22    
Precipitation  
Precipitation 0.00 in 0.03 in 1.32 in (1983)
Month to date precipitation 0.55 0.54  
Year to date precipitation 1.60 4.82  
Snow  
Snow 0.00 in - - ()
Month to date snowfall 0.0  
Year to date snowfall 0.0  
Since 1 July snowfall 0.0  
Snow Depth 0.00 in    
Sea Level Pressure  
Sea Level Pressure 29.84 in    
Wind  
Wind Speed 8 mph (West)    
Max Wind Speed 18 mph    
Max Gust Speed 22 mph    
Visibility 10 miles    
Events      
T = Trace of Precipitation, MM = Missing Value Source: NWS Daily Summary

Daily Weather History Graph

Daily Weather History Graph

Search for Another Location

Airport or City:

Trip Planner

Search our weather history database for the weather conditions in past years. The results will help you decide how hot, cold, wet, or windy it might be!

Date:

Astronomy

Aug. 16, 2014 Rise Set
Actual Time 5:51 AM MST 7:12 PM MST
Civil Twilight 5:25 AM MST 7:38 PM MST
Nautical Twilight 4:53 AM MST 8:10 PM MST
Astronomical Twilight 4:21 AM MST 8:42 PM MST
Moon 11:21 PM MST (8/16) 12:19 PM MST (8/16)
Length of Visible Light 14h 13m
Length of Day
13h 21m
Waning Gibbous, 58% of the Moon is Illuminated
Aug 16
Waning Gibbous
Aug 17
Last Quarter
Aug 25
New
Sep 2
First Quarter
Sep 8
Full

Hourly Weather History & Observations

Time (MST) Temp. Heat Index Dew Point Humidity Pressure Visibility Wind Dir Wind Speed Gust Speed Precip Events Conditions
12:51 AM 93.2 °F 93.3 °F 60.8 °F 34% 29.88 in 10.0 mi West 8.1 mph - N/A   Partly Cloudy
1:51 AM 91.0 °F 95.2 °F 68.0 °F 47% 29.82 in 10.0 mi West 12.7 mph - N/A   Partly Cloudy
2:51 AM 90.0 °F 93.6 °F 68.0 °F 48% 29.83 in 10.0 mi West 8.1 mph - N/A   Partly Cloudy
3:51 AM 89.1 °F 92.1 °F 66.9 °F 48% 29.84 in 10.0 mi West 5.8 mph - N/A   Clear
4:51 AM 88.0 °F 91.4 °F 68.0 °F 51% 29.85 in 10.0 mi WNW 9.2 mph - N/A   Clear
5:51 AM 87.8 °F 91.4 °F 68.0 °F 52% 29.93 in 10.0 mi NNW 6.9 mph - N/A   Partly Cloudy
6:51 AM 88.0 °F 91.4 °F 68.0 °F 51% 29.88 in 10.0 mi NNE 5.8 mph - N/A   Partly Cloudy
7:51 AM 89.6 °F 93.4 °F 68.0 °F 49% 29.97 in 10.0 mi SE 4.6 mph - N/A   Partly Cloudy
8:51 AM 90.0 °F 92.8 °F 66.9 °F 46% 29.91 in 10.0 mi Calm Calm - N/A   Partly Cloudy
9:51 AM 93.9 °F 97.5 °F 66.9 °F 41% 29.91 in 10.0 mi Variable 3.5 mph - N/A   Partly Cloudy
10:51 AM 95.0 °F 97.4 °F 64.9 °F 37% 29.91 in 10.0 mi West 4.6 mph - N/A   Clear
11:51 AM 97.0 °F 99.3 °F 64.0 °F 34% 29.89 in 10.0 mi West 5.8 mph - N/A   Scattered Clouds
12:51 PM 99.0 °F 100.5 °F 63.0 °F 30% 29.86 in 10.0 mi West 5.8 mph - N/A   Scattered Clouds
1:51 PM 102.9 °F 103.6 °F 60.1 °F 24% 29.83 in 10.0 mi West 11.5 mph - N/A   Scattered Clouds
2:51 PM 102.9 °F 103.6 °F 60.1 °F 24% 29.80 in 10.0 mi WSW 8.1 mph - N/A   Partly Cloudy
3:51 PM 104.0 °F 105.3 °F 60.1 °F 24% 29.77 in 10.0 mi West 5.8 mph - N/A   Scattered Clouds
4:51 PM 105.8 °F 106.8 °F 59.0 °F 22% 29.81 in 10.0 mi West 13.8 mph 21.9 mph N/A   Scattered Clouds
5:51 PM 105.1 °F 105.7 °F 59.0 °F 22% 29.74 in 10.0 mi WSW 8.1 mph - N/A   Scattered Clouds
6:51 PM 102.2 °F 101.4 °F 57.2 °F 22% 29.81 in 10.0 mi WSW 10.4 mph - N/A   Scattered Clouds
7:51 PM 102.0 °F 101.1 °F 57.0 °F 22% 29.74 in 10.0 mi WSW 9.2 mph - N/A   Scattered Clouds
8:51 PM 100.0 °F 100.2 °F 59.0 °F 26% 29.77 in 10.0 mi SW 4.6 mph - N/A   Partly Cloudy
9:51 PM 99.0 °F 98.1 °F 57.9 °F 25% 29.76 in 10.0 mi WSW 8.1 mph - N/A   Partly Cloudy
10:51 PM 96.8 °F 96.2 °F 59.0 °F 28% 29.84 in 10.0 mi WSW 6.9 mph - N/A   Partly Cloudy
11:51 PM 97.0 °F 96.9 °F 60.1 °F 29% 29.77 in 10.0 mi West 10.4 mph - N/A   Partly Cloudy